• In Czech Republic
  • List of Countries
  • For 7 days
  • Water Temperature
  • Satellite Maps
  • Weather Map
  • Weather Widgets
  • user-avatar
    Login

    Hourly Weather Sanctorum

    Today, 18 November, Saturday

    Time Temperature Precipitation Wind Pressure Humidity
    00:00 +10°C° 0 mm 1 mps 554 mmHg 67%
    01:00 +10°C° 0 mm 1 mps 553 mmHg 67%
    02:00 +9°C° 0 mm 1 mps 553 mmHg 68%
    03:00 +9°C° 0 mm 1 mps 553 mmHg 68%
    04:00 +9°C° 0 mm 1 mps 553 mmHg 68%
    05:00 +8°C° 0 mm 1 mps 552 mmHg 69%
    06:00 +10°C° 0 mm 1 mps 554 mmHg 60%
    07:00 +12°C° 0 mm 1 mps 555 mmHg 52%
    08:00 +14°C° 0 mm 1 mps 556 mmHg 44%
    09:00 +16°C° 0 mm 1 mps 557 mmHg 37%
    10:00 +19°C° 0 mm 1 mps 558 mmHg 29%
    11:00 +20°C° 0 mm 2 mps 558 mmHg 22%
    12:00 +20°C° 0 mm 2 mps 558 mmHg 22%
    13:00 +21°C° 0 mm 2 mps 557 mmHg 22%
    14:00 +21°C° 0 mm 3 mps 557 mmHg 22%
    15:00 +19°C° 0 mm 2 mps 556 mmHg 30%
    16:00 +17°C° 0 mm 2 mps 555 mmHg 38%
    17:00 +15°C° 0 mm 2 mps 554 mmHg 47%
    18:00 +14°C° 0 mm 2 mps 554 mmHg 53%
    19:00 +13°C° 0 mm 2 mps 554 mmHg 60%
    20:00 +12°C° 0 mm 2 mps 554 mmHg 66%
    21:00 +10°C° 0 mm 2 mps 554 mmHg 65%
    22:00 +9°C° 0 mm 2 mps 554 mmHg 63%
    23:00 +8°C° 0 mm 2 mps 554 mmHg 61%

    Tomorrow, 19 November, Sunday

    Time Temperature Precipitation Wind Pressure Humidity
    00:00 +8°C° 0 mm 2 mps 553 mmHg 58%
    01:00 +7°C° 0 mm 2 mps 553 mmHg 54%
    02:00 +6°C° 0 mm 2 mps 553 mmHg 50%
    03:00 +6°C° 0 mm 2 mps 553 mmHg 52%
    04:00 +5°C° 0 mm 2 mps 552 mmHg 54%
    05:00 +4°C° 0 mm 3 mps 552 mmHg 56%
    06:00 +5°C° 0 mm 3 mps 554 mmHg 59%
    07:00 +8°C° 0 mm 3 mps 555 mmHg 61%
    08:00 +8°C° 0 mm 4 mps 556 mmHg 63%
    09:00 +11°C° 0 mm 4 mps 557 mmHg 61%
    10:00 +12°C° 0 mm 4 mps 557 mmHg 59%
    11:00 +13°C° 0 mm 4 mps 558 mmHg 57%
    12:00 +13°C° 0 mm 4 mps 557 mmHg 57%
    13:00 +13°C° 0 mm 3 mps 556 mmHg 57%
    14:00 +13°C° 0 mm 3 mps 556 mmHg 56%
    15:00 +12°C° 0 mm 3 mps 555 mmHg 61%
    16:00 +11°C° 0 mm 3 mps 555 mmHg 66%
    17:00 +10°C° 0 mm 2 mps 554 mmHg 71%
    18:00 +9°C° 0 mm 2 mps 554 mmHg 75%
    19:00 +8°C° 0 mm 2 mps 555 mmHg 80%
    20:00 +7°C° 0 mm 2 mps 555 mmHg 84%
    21:00 +7°C° 0 mm 2 mps 554 mmHg 85%
    22:00 +6°C° 0 mm 2 mps 554 mmHg 86%
    23:00 +7°C° 0 mm 1 mps 554 mmHg 87%

    Day after tomorrow, 20 November, Monday

    Time Temperature Precipitation Wind Pressure Humidity
    00:00 +7°C° 0 mm 1 mps 553 mmHg 87%
    01:00 +7°C° 0 mm 1 mps 553 mmHg 87%
    02:00 +6°C° 0 mm 1 mps 552 mmHg 87%
    03:00 +6°C° 0 mm 1 mps 552 mmHg 85%
    04:00 +6°C° 0 mm 1 mps 552 mmHg 84%
    05:00 +6°C° 0 mm 1 mps 552 mmHg 83%
    06:00 +8°C° 0 mm 1 mps 553 mmHg 73%
    07:00 +10°C° 0 mm 1 mps 555 mmHg 64%
    08:00 +12°C° 0 mm 1 mps 556 mmHg 54%
    09:00 +14°C° 0 mm 1 mps 557 mmHg 47%
    10:00 +16°C° 0 mm 2 mps 557 mmHg 40%
    11:00 +18°C° 0 mm 2 mps 558 mmHg 34%
    12:00 +18°C° 0 mm 2 mps 557 mmHg 33%
    13:00 +19°C° 0 mm 2 mps 557 mmHg 32%
    14:00 +19°C° 0 mm 3 mps 556 mmHg 31%
    15:00 +17°C° 0 mm 2 mps 555 mmHg 38%
    16:00 +15°C° 0 mm 2 mps 555 mmHg 46%
    17:00 +14°C° 0 mm 1 mps 554 mmHg 53%
    18:00 +13°C° 0 mm 1 mps 554 mmHg 58%
    19:00 +12°C° 0 mm 1 mps 554 mmHg 63%
    20:00 +10°C° 0 mm 0 mps 554 mmHg 68%
    21:00 +11°C° 0 mm 1 mps 554 mmHg 67%
    22:00 +10°C° 0 mm 1 mps 553 mmHg 66%
    23:00 +10°C° 0 mm 1 mps 553 mmHg 65%

    21 November, Tuesday

    Time Temperature Precipitation Wind Pressure Humidity
    00:00 +10°C° 0 mm 1 mps 553 mmHg 64%
    01:00 +9°C° 0 mm 1 mps 552 mmHg 63%
    02:00 +9°C° 0 mm 1 mps 552 mmHg 63%
    03:00 +9°C° 0 mm 1 mps 552 mmHg 62%
    04:00 +9°C° 0 mm 1 mps 552 mmHg 62%
    05:00 +8°C° 0 mm 1 mps 552 mmHg 61%
    06:00 +10°C° 0 mm 1 mps 553 mmHg 56%
    07:00 +12°C° 0 mm 1 mps 555 mmHg 50%
    08:00 +14°C° 0 mm 1 mps 556 mmHg 45%
    09:00 +16°C° 0 mm 2 mps 556 mmHg 41%
    10:00 +17°C° 0 mm 2 mps 557 mmHg 37%
    11:00 +19°C° 0 mm 2 mps 557 mmHg 33%
    12:00 +19°C° 0 mm 2 mps 557 mmHg 32%
    13:00 +19°C° 0 mm 3 mps 556 mmHg 32%
    14:00 +20°C° 0 mm 3 mps 556 mmHg 31%
    15:00 +18°C° 0 mm 2 mps 555 mmHg 39%
    16:00 +16°C° 0 mm 2 mps 554 mmHg 47%
    17:00 +14°C° 0 mm 1 mps 554 mmHg 55%
    18:00 +13°C° 0 mm 1 mps 554 mmHg 61%
    19:00 +13°C° 0 mm 1 mps 554 mmHg 67%
    20:00 +12°C° 0 mm 1 mps 554 mmHg 74%
    21:00 +11°C° 0 mm 1 mps 554 mmHg 75%
    22:00 +11°C° 0 mm 1 mps 554 mmHg 76%
    23:00 +10°C° 0 mm 1 mps 554 mmHg 77%

    22 November, Wednesday

    Time Temperature Precipitation Wind Pressure Humidity
    00:00 +10°C° 0 mm 1 mps 553 mmHg 79%
    01:00 +9°C° 0 mm 1 mps 553 mmHg 81%
    02:00 +9°C° 0 mm 1 mps 553 mmHg 82%
    03:00 +8°C° 0 mm 2 mps 553 mmHg 84%
    04:00 +7°C° 0 mm 2 mps 553 mmHg 86%
    05:00 +7°C° 0 mm 2 mps 553 mmHg 88%
    06:00 +7°C° 0 mm 2 mps 554 mmHg 83%
    07:00 +8°C° 0 mm 3 mps 555 mmHg 77%
    08:00 +9°C° 0 mm 3 mps 556 mmHg 72%
    09:00 +10°C° 0 mm 3 mps 556 mmHg 66%
    10:00 +12°C° 0 mm 3 mps 557 mmHg 59%
    11:00 +13°C° 0 mm 3 mps 557 mmHg 52%
    12:00 +13°C° 0 mm 3 mps 557 mmHg 51%
    13:00 +14°C° 0 mm 3 mps 556 mmHg 51%
    14:00 +14°C° 0 mm 3 mps 556 mmHg 50%
    15:00 +12°C° 0 mm 3 mps 555 mmHg 56%
    16:00 +11°C° 0 mm 3 mps 555 mmHg 62%
    17:00 +10°C° 0 mm 3 mps 554 mmHg 68%
    18:00 +9°C° 0 mm 3 mps 554 mmHg 73%
    19:00 +8°C° 0 mm 3 mps 555 mmHg 77%
    20:00 +7°C° 0 mm 3 mps 555 mmHg 81%
    21:00 +7°C° 0 mm 3 mps 555 mmHg 80%
    22:00 +7°C° 0 mm 2 mps 554 mmHg 80%
    23:00 +7°C° 0 mm 2 mps 554 mmHg 79%

    23 November, Thursday

    Time Temperature Precipitation Wind Pressure Humidity
    00:00 +6°C° 0 mm 2 mps 554 mmHg 80%
    01:00 +6°C° 0 mm 2 mps 553 mmHg 81%
    02:00 +5°C° 0 mm 2 mps 553 mmHg 82%
    03:00 +6°C° 0 mm 1 mps 552 mmHg 83%
    04:00 +5°C° 0 mm 1 mps 552 mmHg 85%
    05:00 +5°C° 0 mm 1 mps 552 mmHg 86%
    06:00 +6°C° 0 mm 1 mps 553 mmHg 78%
    07:00 +8°C° 0 mm 1 mps 554 mmHg 71%
    08:00 +8°C° 0 mm 2 mps 555 mmHg 63%
    09:00 +10°C° 0 mm 2 mps 556 mmHg 56%
    10:00 +13°C° 0 mm 2 mps 556 mmHg 49%
    11:00 +15°C° 0 mm 2 mps 557 mmHg 41%
    12:00 +15°C° 0 mm 2 mps 556 mmHg 41%
    13:00 +14°C° 0 mm 3 mps 556 mmHg 41%
    14:00 +14°C° 0 mm 3 mps 555 mmHg 41%
    15:00 +12°C° 0 mm 3 mps 555 mmHg 49%
    16:00 +11°C° 0 mm 3 mps 554 mmHg 56%
    17:00 +9°C° 0 mm 2 mps 554 mmHg 64%
    18:00 +8°C° 0 mm 2 mps 554 mmHg 68%
    19:00 +8°C° 0 mm 2 mps 554 mmHg 73%
    20:00 +7°C° 0 mm 2 mps 554 mmHg 77%
    21:00 +6°C° 0 mm 2 mps 553 mmHg 80%
    22:00 +7°C° 0 mm 1 mps 553 mmHg 82%
    23:00 +6°C° 0 mm 1 mps 553 mmHg 84%
    Show more